Location: Casa Rossa
(45.2389°N, 12.2056°E)
Time: 04:23:15
(UTC+00:00)

SL-16 R/B - Pass Details

Date: 14 July 2020
Orbit: 985 x 1007 km, 99.5° (Epoch: 11 August)

Event Time Altitude Azimuth Distance (km) Brightness Sun altitude
Exits shadow 00:11:55 18° 136° (SE) 2,215 4.1 -22.0°
Maximum altitude 00:16:21 52° 67° (ENE) 1,236 3.2 -21.8°
Drops below altitude 10° 00:22:24 10° 354° (N) 2,792 5.8 -21.5°
Sets 00:24:57 0° 349° (N) 3,747 6.6 -21.4°
